Ames, IA

12:38 AM CDT on May 01, 2017 (GMT -0500)
Ames Municipal

Weather History for KAMW - November, 2014

Change the Weather History Date:

Sunday, November 23, 2014

  Actual Average Record
Temperature  
Mean Temperature 44 °F 32 °F  
Max Temperature 54 °F 42 °F 59 °F (2006)
Min Temperature 34 °F 23 °F 0 °F (2013)
Degree Days  
Heating Degree Days 21 33  
Month to date heating degree days 764 615  
Since 1 July heating degree days 1331 1211  
Cooling Degree Days 0 0  
Month to date cooling degree days 0 0  
Year to date cooling degree days 650 752  
Moisture  
Dew Point 45 °F    
Average Humidity 89    
Maximum Humidity 96    
Minimum Humidity 82    
Precipitation  
Precipitation 0.56 in 0.05 in 0.56 in (2014)
Month to date precipitation 0.76 1.76  
Sea Level Pressure  
Sea Level Pressure 29.45 in    
Wind  
Wind Speed 13 mph (SSW)    
Max Wind Speed 31 mph    
Max Gust Speed 40 mph    
Visibility 5 miles    
Events Rain    
T = Trace of Precipitation, MM = Missing Value Source: NWS Daily Summary

Daily Weather History Graph

Daily Weather History Graph

Search for Another Location

Airport or City:

Trip Planner

Search our weather history database for the weather conditions in past years. The results will help you decide how hot, cold, wet, or windy it might be!

Date:

Astronomy

Nov. 23, 2014 Rise Set
Actual Time 7:13 AM CST 4:47 PM CST
Civil Twilight 6:43 AM CST 5:18 PM CST
Nautical Twilight 6:09 AM CST 5:52 PM CST
Astronomical Twilight 5:35 AM CST 6:25 PM CST
Moon 8:10 AM CST (11/23) 6:11 PM CST (11/23)
Length of Visible Light 10h 34m
Length of Day
9h 33m
New Moon, 2% of the Moon is Illuminated
Nov 23
New Moon
Nov 29
First Quarter
Dec 6
Full
Dec 14
Last Quarter
Dec 21
New

Hourly Weather History & Observations

Time (CST) Temp. Windchill Dew Point Humidity Pressure Visibility Wind Dir Wind Speed Gust Speed Precip Events Conditions
12:53 AM 52.0 °F - 48.9 °F 89% 29.60 in 6.0 mi South 11.5 mph - N/A   Overcast
1:10 AM 52.0 °F - 48.9 °F 89% 29.59 in 6.0 mi South 13.8 mph - N/A   Overcast
1:53 AM 52.0 °F - 48.9 °F 89% 29.57 in 7.0 mi South 11.5 mph - N/A   Overcast
2:39 AM 52.0 °F - 48.9 °F 89% 29.56 in 7.0 mi South 13.8 mph - N/A   Overcast
2:53 AM 53.1 °F - 48.9 °F 86% 29.55 in 9.0 mi South 12.7 mph - N/A   Overcast
3:53 AM 53.1 °F - 48.9 °F 86% 29.55 in 8.0 mi South 12.7 mph - N/A   Overcast
4:25 AM 51.1 °F - 50.0 °F 96% 29.55 in 3.0 mi South 10.4 mph - N/A   Overcast
4:43 AM 51.1 °F - 50.0 °F 96% 29.55 in 3.0 mi South 11.5 mph - N/A   Overcast
4:53 AM 51.1 °F - 50.0 °F 96% 29.55 in 3.0 mi South 10.4 mph - N/A   Overcast
5:00 AM 51.1 °F - 48.9 °F 92% 29.55 in 2.5 mi South 12.7 mph - N/A   Overcast
5:09 AM 51.1 °F - 48.9 °F 92% 29.55 in 3.0 mi South 10.4 mph - N/A   Overcast
5:19 AM 51.1 °F - 48.9 °F 92% 29.55 in 2.5 mi South 9.2 mph - N/A   Overcast
5:40 AM 51.1 °F - 48.9 °F 92% 29.53 in 2.0 mi SSE 9.2 mph - N/A   Overcast
5:48 AM 51.8 °F - 48.2 °F 88% 29.53 in 2.0 mi SSE 8.1 mph - N/A   Overcast
5:53 AM 51.1 °F - 48.9 °F 92% 29.53 in 2.0 mi SSE 6.9 mph - N/A   Overcast
6:19 AM 51.1 °F - 48.9 °F 92% 29.53 in 2.5 mi South 9.2 mph - N/A   Overcast
6:26 AM 51.1 °F - 48.9 °F 92% 29.53 in 3.0 mi SSE 9.2 mph - N/A   Overcast
6:53 AM 51.1 °F - 48.9 °F 92% 29.52 in 4.0 mi SSE 9.2 mph - N/A   Overcast
7:53 AM 51.1 °F - 48.9 °F 92% 29.52 in 6.0 mi South 8.1 mph - N/A   Overcast
8:53 AM 51.1 °F - 48.9 °F 92% 29.50 in 4.0 mi South 3.5 mph - N/A   Overcast
9:27 AM 51.1 °F - 50.0 °F 96% 29.50 in 1.8 mi South 4.6 mph - 0.02 in Rain Light Rain
9:45 AM 51.1 °F - 50.0 °F 96% 29.49 in 1.5 mi SSE 5.8 mph - 0.03 in   Overcast
9:53 AM 51.1 °F - 50.0 °F 96% 29.49 in 1.5 mi SE 4.6 mph - 0.03 in Rain Light Rain
10:43 AM 51.1 °F - 48.9 °F 92% 29.48 in 2.5 mi SSE 6.9 mph - 0.00 in   Overcast
10:53 AM 51.1 °F - 48.9 °F 92% 29.47 in 2.5 mi SSE 5.8 mph - 0.00 in   Overcast
11:04 AM 51.1 °F - 50.0 °F 96% 29.46 in 3.0 mi SSE 4.6 mph - N/A   Overcast
11:33 AM 52.0 °F - 50.0 °F 93% 29.45 in 1.8 mi South 4.6 mph - 0.02 in Rain Light Rain
11:44 AM 52.0 °F - 50.0 °F 93% 29.44 in 3.0 mi SSW 3.5 mph - 0.02 in   Overcast
11:53 AM 52.0 °F - 50.0 °F 93% 29.43 in 3.0 mi South 4.6 mph - 0.02 in   Overcast
12:50 PM 53.6 °F - 51.8 °F 94% 29.38 in 8.0 mi SSW 5.8 mph - N/A   Overcast
12:53 PM 53.1 °F - 51.1 °F 93% 29.37 in 8.0 mi SSW 5.8 mph - N/A   Overcast
1:53 PM 53.1 °F - 51.1 °F 93% 29.34 in 10.0 mi South 4.6 mph - N/A   Overcast
2:46 PM 53.1 °F - 51.1 °F 93% 29.34 in 1.8 mi SE 4.6 mph - 0.00 in Rain Light Rain
2:53 PM 52.0 °F - 51.1 °F 97% 29.34 in 1.0 mi North - - 0.03 in Rain Light Rain
3:17 PM 48.9 °F - 46.0 °F 90% 29.36 in 2.0 mi NNW 13.8 mph - 0.05 in Rain Light Rain
3:31 PM 48.0 °F - 45.0 °F 89% 29.36 in 5.0 mi NNW 20.7 mph 25.3 mph 0.05 in   Overcast
3:38 PM 48.0 °F - 44.1 °F 86% 29.37 in 7.0 mi NNW 17.3 mph 25.3 mph 0.05 in   Overcast
3:53 PM 46.9 °F - 44.1 °F 90% 29.37 in 6.0 mi NNW 12.7 mph 25.3 mph 0.05 in   Overcast
4:27 PM 46.0 °F 39.3 °F 42.1 °F 86% 29.37 in 2.5 mi NNW 16.1 mph - 0.02 in Rain Light Rain
4:35 PM 46.0 °F 38.8 °F 42.1 °F 86% 29.37 in 5.0 mi NNW 18.4 mph 25.3 mph 0.02 in Rain Light Rain
4:53 PM 46.0 °F 39.3 °F 42.1 °F 86% 29.37 in 5.0 mi North 16.1 mph 27.6 mph 0.02 in   Overcast
5:07 PM 46.0 °F 39.0 °F 41.0 °F 83% 29.37 in 10.0 mi NNW 17.3 mph 23.0 mph N/A   Overcast
5:20 PM 45.0 °F 37.4 °F 41.0 °F 86% 29.37 in 10.0 mi NNW 18.4 mph 26.5 mph N/A   Overcast
5:53 PM 44.1 °F 36.2 °F 39.9 °F 85% 29.38 in 10.0 mi NNW 18.4 mph 29.9 mph N/A   Overcast
6:49 PM 42.8 °F 32.7 °F 39.2 °F 87% 29.38 in 6.0 mi NNW 27.6 mph 38.0 mph 0.07 in Rain Light Rain
6:53 PM 42.1 °F 31.0 °F 37.9 °F 85% 29.39 in 5.0 mi NNW 32.2 mph 40.3 mph 0.07 in Rain Light Rain
7:05 PM 41.0 °F 31.1 °F 37.0 °F 86% 29.38 in 4.0 mi NNW 23.0 mph 36.8 mph 0.07 in Rain Rain
7:49 PM 37.4 °F 26.6 °F 35.6 °F 93% 29.39 in 9.0 mi NNW 21.9 mph 33.4 mph 0.14 in Rain Light Rain
7:53 PM 37.9 °F 27.3 °F 36.0 °F 93% 29.40 in 7.0 mi NNW 21.9 mph 31.1 mph 0.15 in Rain Rain
8:04 PM 37.0 °F 26.4 °F 35.1 °F 93% 29.39 in 4.0 mi NNW 20.7 mph 33.4 mph 0.04 in Rain Rain
8:53 PM 37.9 °F 27.9 °F 36.0 °F 93% 29.39 in 7.0 mi NNW 19.6 mph 25.3 mph 0.17 in Rain Light Rain
9:36 PM 37.9 °F 28.9 °F 35.1 °F 89% 29.39 in 10.0 mi NW 16.1 mph 23.0 mph 0.02 in   Overcast
9:53 PM 37.0 °F 26.4 °F 34.0 °F 89% 29.39 in 10.0 mi NW 20.7 mph 26.5 mph 0.02 in   Overcast
10:53 PM 36.0 °F 26.3 °F 30.0 °F 79% 29.39 in 10.0 mi NW 16.1 mph 25.3 mph N/A   Overcast
11:53 PM 35.1 °F 23.8 °F 28.0 °F 76% 29.38 in 10.0 mi NW 20.7 mph 31.1 mph N/A   Overcast